Location: Artiguedieu
(43.5000°N, 0.5454°E)
Time: 00:27:47
(UTC+00:00)

SR - Pass Details

Date: 05 August 2021
Orbit: 581 x 874 km, 66.7° (Epoch: 24 September)

Event Time Altitude Azimuth Distance (km) Brightness Sun altitude
Rises 03:48:37 0° 173° (S) 3,442 ? -10.7°
Reaches altitude 10° 03:51:35 10° 160° (SSE) 2,493 ? -10.3°
Maximum altitude 03:56:04 24° 109° (ESE) 1,684 ? -9.6°
Drops below altitude 10° 04:00:25 10° 57° (ENE) 2,406 ? -9.0°
Sets 04:03:12 0° 44° (NE) 3,295 ? -8.5°
